Location: Lugrin
(46.4033°N, 6.6674°E)
Time: 11:29:25
(UTC+00:00)

Cosmos 858 Rocket - Pass Details

Date: 18 September 2020
Orbit: 756 x 774 km, 74.1° (Epoch: 24 October)

Event Time Altitude Azimuth Distance (km) Brightness Sun altitude
Rises 18:36:48 0° 199° (SSW) 3,219 7.8 -10.8°
Reaches altitude 10° 18:39:10 10° 200° (SSW) 2,294 7.0 -11.2°
Maximum altitude 18:44:23 89° 111° (ESE) 768 4.5 -12.1°
Drops below altitude 10° 18:49:37 10° 22° (NNE) 2,300 6.9 -12.9°
Sets 18:51:59 0° 22° (NNE) 3,228 7.7 -13.3°
